| time (UTC) | temp C | wind direction | speed KPH | gust KPH | rain 1hr cm | rain 24hr cm | rain mn cm | humidity % | barometer mb |
| 20260506165626 | 11 | 291 | 0.0 | 3.2 | 0.00 | 1.47 | 1.47 | 94 | 1013.1 |
| 20260506165122 | 12 | 272 | 0.0 | 0.0 | 0.00 | 1.47 | 1.47 | 94 | 1013.2 |
| 20260506164620 | 12 | 5 | 3.2 | 6.4 | 0.00 | 1.47 | 1.47 | 95 | 1013.3 |
| 20260506164117 | 11 | 311 | 0.0 | 1.6 | 0.00 | 1.47 | 1.47 | 95 | 1013.2 |
| 20260506163613 | 11 | 315 | 3.2 | 4.8 | 0.00 | 1.47 | 1.47 | 95 | 1013.4 |
| 20260506163108 | 11 | 331 | 3.2 | 4.8 | 0.00 | 1.47 | 1.47 | 96 | 1013.3 |
| 20260506162605 | 11 | 321 | 3.2 | 4.8 | 0.00 | 1.47 | 1.47 | 96 | 1013.2 |
| 20260506162102 | 11 | 278 | 1.6 | 3.2 | 0.00 | 1.47 | 1.47 | 96 | 1013.0 |
| 20260506161559 | 11 | 341 | 0.0 | 4.8 | 0.00 | 1.47 | 1.47 | 96 | 1013.0 |
| 20260506161056 | 11 | 336 | 1.6 | 9.7 | 0.00 | 1.47 | 1.47 | 96 | 1013.0 |
| 20260506160554 | 10 | 295 | 3.2 | 4.8 | 0.00 | 1.47 | 1.47 | 96 | 1013.0 |
| 20260506160050 | 10 | 302 | 3.2 | 6.4 | 0.00 | 1.47 | 1.47 | 96 | 1012.8 |
| 20260506155549 | 10 | 10 | 6.4 | 11.3 | 0.00 | 1.47 | 1.47 | 96 | 1012.9 |
| 20260506153703 | 10 | 319 | 1.6 | 3.2 | 0.00 | 1.47 | 1.47 | 97 | 1012.4 |
| 20260506153200 | 11 | 6 | 4.8 | 6.4 | 0.00 | 1.47 | 1.47 | 97 | 1012.2 |
| 20260506152657 | 11 | 338 | 1.6 | 4.8 | 0.00 | 1.47 | 1.47 | 97 | 1012.4 |
| 20260506152155 | 10 | 341 | 0.0 | 0.0 | 0.00 | 1.47 | 1.47 | 97 | 1012.0 |
| 20260506151654 | 10 | 309 | 3.2 | 4.8 | 0.00 | 1.47 | 1.47 | 97 | 1011.8 |
| 20260506151150 | 10 | 311 | 1.6 | 3.2 | 0.00 | 1.47 | 1.47 | 97 | 1011.8 |
| 20260506150646 | 10 | 357 | 6.4 | 9.7 | 0.00 | 1.47 | 1.47 | 97 | 1011.7 |
| 20260506150144 | 10 | 325 | 3.2 | 3.2 | 0.00 | 1.47 | 1.47 | 97 | 1011.7 |
| 20260506145640 | 10 | 36 | 4.8 | 6.4 | 0.00 | 1.47 | 1.47 | 97 | 1011.7 |
| 20260506145137 | 10 | 5 | 3.2 | 9.7 | 0.00 | 1.47 | 1.47 | 97 | 1011.8 |
| 20260506144635 | 10 | 336 | 0.0 | 3.2 | 0.00 | 1.47 | 1.47 | 97 | 1011.8 |
| 20260506144131 | 10 | 357 | 6.4 | 6.4 | 0.00 | 1.47 | 1.47 | 97 | 1011.7 |
| 20260506143629 | 10 | 355 | 3.2 | 4.8 | 0.00 | 1.47 | 1.47 | 97 | 1011.5 |
| 20260506143127 | 10 | 8 | 3.2 | 6.4 | 0.00 | 1.47 | 1.47 | 97 | 1011.3 |
| 20260506142625 | 10 | 358 | 1.6 | 4.8 | 0.00 | 1.47 | 1.47 | 97 | 1011.3 |
| 20260506142123 | 10 | 16 | 0.0 | 6.4 | 0.00 | 1.47 | 1.47 | 97 | 1011.3 |
| 20260506141620 | 10 | 348 | 1.6 | 6.4 | 0.00 | 1.47 | 1.47 | 97 | 1011.1 |
| 20260506141118 | 10 | 37 | 9.7 | 12.9 | 0.00 | 1.47 | 1.47 | 97 | 1011.0 |
| 20260506140615 | 10 | 355 | 1.6 | 4.8 | 0.13 | 1.47 | 1.47 | 97 | 1011.1 |
| 20260506140113 | 10 | 14 | 3.2 | 6.4 | 0.13 | 1.47 | 1.47 | 97 | 1011.1 |
| 20260506135609 | 10 | 335 | 9.7 | 12.9 | 0.18 | 1.45 | 1.45 | 97 | 1011.1 |
| 20260506135105 | 10 | 327 | 1.6 | 6.4 | 0.18 | 1.45 | 1.45 | 97 | 1010.9 |
| 20260506134602 | 10 | 338 | 3.2 | 3.2 | 0.00 | 1.42 | 1.42 | 97 | 1010.8 |
| 20260506134058 | 10 | 319 | 1.6 | 6.4 | 0.13 | 1.42 | 1.42 | 97 | 1010.8 |
| 20260506133555 | 10 | 328 | 3.2 | 6.4 | 0.13 | 1.42 | 1.42 | 97 | 1010.8 |
| 20260506133052 | 10 | 340 | 4.8 | 6.4 | 0.00 | 1.40 | 1.40 | 97 | 1010.7 |
| 20260506132550 | 10 | 314 | 6.4 | 6.4 | 0.00 | 1.40 | 1.40 | 97 | 1010.2 |
| 20260506132047 | 10 | 329 | 3.2 | 9.7 | 0.00 | 1.40 | 1.40 | 97 | 1009.9 |
| 20260506131544 | 10 | 316 | 1.6 | 9.7 | 0.00 | 1.40 | 1.40 | 97 | 1010.2 |
| 20260506131040 | 10 | 318 | 3.2 | 12.9 | 0.18 | 1.40 | 1.40 | 97 | 1010.2 |
| 20260506130537 | 11 | 324 | 3.2 | 3.2 | 0.18 | 1.40 | 1.40 | 97 | 1010.2 |
| 20260506130035 | 11 | 314 | 1.6 | 3.2 | 0.00 | 1.37 | 1.37 | 97 | 1010.1 |
| 20260506125533 | 11 | 346 | 4.8 | 6.4 | 0.00 | 1.37 | 1.37 | 97 | 1009.6 |
| 20260506125030 | 11 | 307 | 0.0 | 3.2 | 0.00 | 1.37 | 1.37 | 97 | 1009.5 |
| 20260506124528 | 11 | 327 | 0.0 | 1.6 | 0.00 | 1.37 | 1.37 | 97 | 1009.4 |
| 20260506124026 | 11 | 337 | 1.6 | 3.2 | 0.00 | 1.37 | 1.37 | 97 | 1009.5 |
| 20260506123523 | 11 | 304 | 0.0 | 4.8 | 0.00 | 1.37 | 1.37 | 97 | 1009.3 |
| 20260506123021 | 11 | 298 | 0.0 | 3.2 | 0.00 | 1.37 | 1.37 | 97 | 1009.3 |
| 20260506122517 | 11 | 293 | 1.6 | 4.8 | 0.13 | 1.37 | 1.37 | 97 | 1009.1 |
| 20260506122016 | 11 | 4 | 1.6 | 6.4 | 0.13 | 1.37 | 1.37 | 97 | 1009.0 |
| 20260506121513 | 12 | 322 | 3.2 | 4.8 | 0.00 | 1.35 | 1.35 | 97 | 1009.0 |
| 20260506121009 | 12 | 11 | 3.2 | 6.4 | 0.00 | 1.35 | 1.35 | 97 | 1009.2 |
| 20260506120507 | 13 | 302 | 1.6 | 4.8 | 0.00 | 1.35 | 1.35 | 97 | 1008.9 |
| 20260506120004 | 14 | 313 | 4.8 | 11.3 | 0.18 | 1.35 | 1.35 | 97 | 1009.0 |
| 20260506115502 | 14 | 227 | 1.6 | 6.4 | 0.18 | 1.35 | 1.35 | 97 | 1008.7 |
| 20260506115000 | 14 | 247 | 0.0 | 4.8 | 0.00 | 1.32 | 1.32 | 97 | 1008.8 |
| 20260506114457 | 14 | 118 | 1.6 | 3.2 | 0.13 | 1.32 | 1.32 | 97 | 1008.8 |
| 20260506113956 | 14 | 170 | 0.0 | 1.6 | 0.18 | 1.30 | 1.30 | 97 | 1008.7 |
| 20260506113453 | 14 | 221 | 0.0 | 4.8 | 0.30 | 1.27 | 1.27 | 97 | 1008.7 |
| 20260506112949 | 14 | 255 | 3.2 | 4.8 | 0.13 | 1.24 | 1.24 | 97 | 1008.7 |
| 20260506112447 | 14 | 138 | 0.0 | 0.0 | 0.00 | 1.22 | 1.22 | 97 | 1008.4 |
| 20260506111944 | 14 | 103 | 0.0 | 0.0 | 0.00 | 1.22 | 1.22 | 97 | 1008.4 |
| 20260506111442 | 14 | 92 | 0.0 | 1.6 | 0.00 | 1.22 | 1.22 | 97 | 1008.3 |
| 20260506110939 | 14 | 230 | 1.6 | 3.2 | 0.00 | 1.22 | 1.22 | 97 | 1008.4 |
| 20260506110437 | 14 | 122 | 3.2 | 6.4 | 0.00 | 1.22 | 1.22 | 97 | 1008.2 |
| 20260506105933 | 14 | 145 | 3.2 | 9.7 | 0.00 | 1.22 | 1.22 | 97 | 1008.1 |
| 20260506105429 | 14 | 187 | 3.2 | 3.2 | 0.00 | 1.22 | 1.22 | 97 | 1007.9 |
| 20260506104927 | 14 | 129 | 3.2 | 3.2 | 0.00 | 1.22 | 1.22 | 97 | 1007.9 |
| 20260506104425 | 14 | 245 | 3.2 | 9.7 | 0.00 | 1.22 | 1.22 | 97 | 1008.0 |
| 20260506103923 | 14 | 164 | 3.2 | 6.4 | 0.00 | 1.22 | 1.22 | 97 | 1007.6 |
| 20260506103420 | 14 | 110 | 4.8 | 4.8 | 0.18 | 1.22 | 1.22 | 97 | 1007.9 |
| 20260506102917 | 14 | 232 | 3.2 | 4.8 | 0.18 | 1.22 | 1.22 | 97 | 1008.1 |
| 20260506102415 | 14 | 137 | 6.4 | 9.7 | 0.00 | 1.19 | 1.19 | 97 | 1008.1 |
| 20260506101912 | 14 | 107 | 6.4 | 9.7 | 0.13 | 1.19 | 1.19 | 97 | 1008.2 |
| 20260506101408 | 14 | 105 | 1.6 | 6.4 | 0.18 | 1.17 | 1.17 | 97 | 1008.2 |
| 20260506100905 | 14 | 114 | 3.2 | 3.2 | 0.30 | 1.17 | 1.17 | 97 | 1008.2 |
| 20260506100404 | 14 | 201 | 3.2 | 4.8 | 0.18 | 1.12 | 1.12 | 97 | 1008.4 |
| 20260506095902 | 14 | 96 | 3.2 | 4.8 | 0.18 | 1.12 | 1.12 | 97 | 1008.2 |
| 20260506095400 | 14 | 96 | 1.6 | 3.2 | 0.13 | 1.09 | 1.09 | 97 | 1008.3 |
| 20260506094856 | 14 | 187 | 3.2 | 6.4 | 0.30 | 1.09 | 1.09 | 97 | 1008.5 |
| 20260506094355 | 14 | 124 | 4.8 | 6.4 | 0.18 | 1.07 | 1.07 | 97 | 1008.1 |
| 20260506093852 | 14 | 192 | 4.8 | 9.7 | 0.13 | 1.04 | 1.04 | 97 | 1008.2 |
| 20260506093349 | 14 | 196 | 3.2 | 16.1 | 0.18 | 1.02 | 1.02 | 97 | 1008.2 |
| 20260506092847 | 14 | 112 | 3.2 | 9.7 | 0.18 | 1.02 | 1.02 | 97 | 1008.1 |
| 20260506092345 | 14 | 173 | 4.8 | 4.8 | 0.13 | 0.99 | 0.99 | 97 | 1008.1 |
| 20260506091841 | 14 | 154 | 1.6 | 4.8 | 0.18 | 0.97 | 0.97 | 97 | 1008.3 |
| 20260506091339 | 14 | 150 | 1.6 | 4.8 | 0.18 | 0.97 | 0.97 | 97 | 1008.1 |
| 20260506090836 | 14 | 130 | 1.6 | 6.4 | 0.18 | 0.94 | 0.94 | 97 | 1008.3 |
| 20260506090334 | 14 | 151 | 3.2 | 4.8 | 0.18 | 0.94 | 0.94 | 97 | 1008.2 |
| 20260506085830 | 14 | 211 | 1.6 | 1.6 | 0.13 | 0.91 | 0.91 | 97 | 1008.4 |
| 20260506085326 | 14 | 219 | 3.2 | 6.4 | 0.13 | 0.91 | 0.91 | 97 | 1008.3 |
| 20260506084823 | 14 | 162 | 1.6 | 4.8 | 0.18 | 0.89 | 0.89 | 97 | 1008.4 |
| 20260506084320 | 14 | 233 | 0.0 | 4.8 | 0.18 | 0.89 | 0.89 | 97 | 1008.6 |
| 20260506083816 | 14 | 110 | 1.6 | 3.2 | 0.13 | 0.86 | 0.86 | 97 | 1008.6 |
| 20260506083314 | 13 | 252 | 1.6 | 4.8 | 0.30 | 0.86 | 0.86 | 97 | 1008.7 |
| 20260506082812 | 13 | 106 | 4.8 | 4.8 | 0.48 | 0.84 | 0.84 | 97 | 1008.5 |
| 20260506082307 | 13 | 112 | 3.2 | 3.2 | 0.30 | 0.79 | 0.79 | 97 | 1008.5 |
| 20260506081804 | 13 | 100 | 3.2 | 4.8 | 0.30 | 0.76 | 0.76 | 96 | 1008.7 |
| 20260506081302 | 13 | 103 | 1.6 | 3.2 | 0.18 | 0.74 | 0.74 | 96 | 1008.7 |
| 20260506080800 | 13 | 118 | 0.0 | 0.0 | 0.13 | 0.71 | 0.71 | 96 | 1008.6 |
| 20260506080256 | 13 | 116 | 1.6 | 3.2 | 0.18 | 0.69 | 0.69 | 96 | 1008.2 |
| 20260506073240 | 13 | 107 | 3.2 | 3.2 | 0.30 | 0.56 | 0.56 | 96 | 1008.9 |
| 20260506072737 | 13 | 105 | 0.0 | 0.0 | 0.43 | 0.53 | 0.53 | 96 | 1009.0 |
| 20260506072234 | 13 | 105 | 0.0 | 3.2 | 0.30 | 0.48 | 0.48 | 96 | 1008.8 |
| 20260506071732 | 13 | 3 | 0.0 | 0.0 | 0.18 | 0.46 | 0.46 | 96 | 1008.7 |
| 20260506071230 | 13 | 57 | 0.0 | 0.0 | 0.00 | 0.43 | 0.43 | 95 | 1008.6 |
| 20260506070726 | 13 | 105 | 0.0 | 0.0 | 0.00 | 0.43 | 0.43 | 95 | 1008.5 |
| 20260506070223 | 13 | 111 | 0.0 | 0.0 | 0.00 | 0.43 | 0.43 | 95 | 1008.5 |
| 20260506062200 | 14 | 117 | 0.0 | 0.0 | 0.48 | 0.41 | 0.41 | 94 | 1009.0 |
| 20260506061656 | 14 | 116 | 0.0 | 0.0 | 0.48 | 0.36 | 0.36 | 94 | 1009.3 |
| 20260506061153 | 14 | 117 | 0.0 | 0.0 | 0.48 | 0.33 | 0.33 | 94 | 1009.1 |
| 20260506060652 | 14 | 117 | 0.0 | 0.0 | 0.30 | 0.28 | 0.28 | 93 | 1009.3 |
| 20260506060149 | 14 | 117 | 0.0 | 0.0 | 0.30 | 0.25 | 0.25 | 93 | 1009.6 |
| 20260506051121 | 14 | 42 | 0.0 | 0.0 | 0.00 | 0.10 | 0.10 | 89 | 1010.3 |
| 20260506050619 | 15 | 42 | 0.0 | 0.0 | 0.00 | 0.10 | 0.10 | 88 | 1010.4 |
| 20260506050116 | 15 | 42 | 0.0 | 0.0 | 0.13 | 0.10 | 0.10 | 87 | 1010.3 |
| 20260506045109 | 15 | 53 | 1.6 | 1.6 | 0.18 | 0.08 | 0.08 | 85 | 1010.1 |
| 20260506044607 | 15 | 53 | 0.0 | 0.0 | 0.18 | 0.08 | 0.08 | 84 | 1010.1 |
| 20260506044103 | 15 | 53 | 0.0 | 0.0 | 0.00 | 0.05 | 0.05 | 83 | 1010.0 |
| 20260506043601 | 15 | 53 | 1.6 | 1.6 | 0.00 | 0.05 | 0.05 | 82 | 1010.0 |
| 20260506043059 | 15 | 53 | 0.0 | 3.2 | 0.00 | 0.05 | 0.05 | 80 | 1010.1 |
| 20260506042558 | 16 | 53 | 0.0 | 1.6 | 0.13 | 0.05 | 0.05 | 78 | 1010.4 |
| 20260506042055 | 16 | 191 | 1.6 | 4.8 | 0.13 | 0.05 | 0.05 | 76 | 1010.4 |
| 20260506041554 | 16 | 111 | 3.2 | 9.7 | 0.18 | 0.03 | 0.03 | 74 | 1010.5 |
| 20260506041050 | 16 | 187 | 3.2 | 6.4 | 0.18 | 0.03 | 0.03 | 72 | 1010.6 |
| 20260506040548 | 17 | 126 | 3.2 | 6.4 | 0.00 | 0.00 | 0.00 | 71 | 1010.7 |
| 20260506040044 | 17 | 184 | 6.4 | 9.7 | 0.18 | 0.08 | 0.08 | 69 | 1010.6 |
| 20260506035541 | 17 | 223 | 3.2 | 4.8 | 0.00 | 0.05 | 0.05 | 66 | 1010.8 |
| 20260506035038 | 18 | 216 | 4.8 | 9.7 | 0.00 | 0.05 | 0.05 | 64 | 1010.8 |
| 20260506034535 | 18 | 105 | 3.2 | 6.4 | 0.00 | 0.05 | 0.05 | 63 | 1010.6 |
| 20260506034032 | 18 | 316 | 3.2 | 4.8 | 0.00 | 0.05 | 0.05 | 61 | 1010.6 |
| 20260506033529 | 19 | 185 | 4.8 | 16.1 | 0.00 | 0.05 | 0.05 | 59 | 1010.7 |
| 20260506033026 | 20 | 160 | 8.0 | 16.1 | 0.00 | 0.05 | 0.05 | 55 | 1010.4 |
| 20260506032524 | 20 | 131 | 1.6 | 11.3 | 0.00 | 0.05 | 0.05 | 53 | 1010.3 |
| 20260506032020 | 20 | 118 | 3.2 | 4.8 | 0.00 | 0.05 | 0.05 | 54 | 1010.3 |
| 20260506031518 | 20 | 169 | 9.7 | 27.4 | 0.00 | 0.05 | 0.05 | 55 | 1010.0 |
| 20260506031015 | 19 | 121 | 1.6 | 1.6 | 0.00 | 0.05 | 0.05 | 59 | 1010.2 |
| 20260506030513 | 19 | 120 | 1.6 | 1.6 | 0.00 | 0.05 | 0.05 | 59 | 1009.9 |
| 20260506030010 | 19 | 102 | 1.6 | 1.6 | 0.00 | 0.05 | 0.05 | 59 | 1009.9 |
| 20260506025507 | 19 | 104 | 1.6 | 3.2 | 0.00 | 0.05 | 0.05 | 59 | 1009.9 |
| 20260506025003 | 19 | 167 | 0.0 | 0.0 | 0.00 | 0.05 | 0.05 | 59 | 1009.8 |
| 20260506024459 | 19 | 167 | 0.0 | 0.0 | 0.00 | 0.05 | 0.05 | 59 | 1009.8 |
| 20260506023955 | 19 | 146 | 0.0 | 0.0 | 0.00 | 0.05 | 0.05 | 59 | 1009.8 |
| 20260506023452 | 20 | 146 | 0.0 | 0.0 | 0.00 | 0.05 | 0.05 | 58 | 1010.1 |
| 20260506022949 | 20 | 146 | 0.0 | 0.0 | 0.00 | 0.05 | 0.05 | 58 | 1009.7 |
| 20260506022447 | 20 | 146 | 1.6 | 1.6 | 0.00 | 0.05 | 0.05 | 57 | 1009.8 |
| 20260506021945 | 20 | 111 | 1.6 | 1.6 | 0.00 | 0.05 | 0.05 | 58 | 1010.0 |
| 20260506021442 | 20 | 127 | 0.0 | 4.8 | 0.00 | 0.05 | 0.05 | 58 | 1009.9 |
| 20260506020938 | 19 | 162 | 1.6 | 3.2 | 0.00 | 0.05 | 0.05 | 59 | 1009.8 |
| 20260506020436 | 18 | 107 | 0.0 | 1.6 | 0.00 | 0.05 | 0.05 | 61 | 1009.8 |
| 20260506015933 | 18 | 105 | 0.0 | 0.0 | 0.00 | 0.05 | 0.05 | 62 | 1009.7 |
| 20260506015431 | 19 | 105 | 0.0 | 0.0 | 0.00 | 0.05 | 0.05 | 62 | 1009.9 |
| 20260506014928 | 19 | 105 | 0.0 | 0.0 | 0.00 | 0.05 | 0.05 | 62 | 1009.8 |
| 20260506014425 | 18 | 124 | 0.0 | 1.6 | 0.00 | 0.05 | 0.05 | 63 | 1009.8 |
| 20260506013921 | 19 | 128 | 0.0 | 0.0 | 0.00 | 0.05 | 0.05 | 62 | 1009.9 |
| 20260506013419 | 19 | 132 | 0.0 | 0.0 | 0.00 | 0.05 | 0.05 | 61 | 1009.9 |
| 20260506012915 | 19 | 132 | 0.0 | 0.0 | 0.00 | 0.05 | 0.05 | 60 | 1009.7 |
| 20260506012412 | 19 | 132 | 0.0 | 0.0 | 0.00 | 0.05 | 0.05 | 59 | 1009.7 |
| 20260506011909 | 19 | 132 | 0.0 | 0.0 | 0.00 | 0.05 | 0.05 | 59 | 1009.6 |
| 20260506011406 | 19 | 132 | 0.0 | 0.0 | 0.00 | 0.05 | 0.05 | 60 | 1009.4 |
| 20260506010903 | 19 | 134 | 0.0 | 0.0 | 0.00 | 0.05 | 0.05 | 60 | 1009.4 |
| 20260506010401 | 19 | 134 | 0.0 | 0.0 | 0.00 | 0.05 | 0.05 | 60 | 1009.4 |
| 20260506005858 | 20 | 134 | 0.0 | 0.0 | 0.00 | 0.05 | 0.05 | 58 | 1009.3 |
| 20260506005355 | 20 | 134 | 0.0 | 0.0 | 0.00 | 0.05 | 0.05 | 56 | 1009.3 |
| 20260506004850 | 20 | 134 | 0.0 | 1.6 | 0.00 | 0.05 | 0.05 | 55 | 1009.6 |
| 20260506004349 | 20 | 143 | 0.0 | 1.6 | 0.00 | 0.05 | 0.05 | 53 | 1009.8 |
| 20260506003844 | 21 | 181 | 0.0 | 1.6 | 0.00 | 0.05 | 0.05 | 53 | 1009.5 |
| 20260506003341 | 21 | 186 | 0.0 | 0.0 | 0.00 | 0.05 | 0.05 | 52 | 1009.7 |
| 20260506002837 | 21 | 203 | 3.2 | 3.2 | 0.00 | 0.05 | 0.05 | 52 | 1009.7 |
| 20260506002334 | 21 | 246 | 0.0 | 1.6 | 0.00 | 0.05 | 0.05 | 52 | 1009.6 |
| 20260506001829 | 21 | 188 | 1.6 | 1.6 | 0.00 | 0.05 | 0.05 | 51 | 1009.8 |
| 20260506001327 | 21 | 230 | 1.6 | 3.2 | 0.00 | 0.05 | 0.05 | 51 | 1009.8 |
| 20260506000824 | 21 | 153 | 3.2 | 4.8 | 0.00 | 0.05 | 0.05 | 51 | 1009.7 |
| 20260506000323 | 21 | 173 | 0.0 | 1.6 | 0.00 | 0.05 | 0.05 | 51 | 1009.8 |
| 20260505235818 | 21 | 226 | 1.6 | 4.8 | 0.00 | 0.05 | 0.05 | 51 | 1009.8 |
| 20260505235315 | 21 | 188 | 3.2 | 4.8 | 0.00 | 0.05 | 0.05 | 50 | 1009.6 |
| 20260505234812 | 21 | 193 | 1.6 | 6.4 | 0.00 | 0.05 | 0.05 | 50 | 1009.9 |
| 20260505234310 | 21 | 291 | 3.2 | 4.8 | 0.00 | 0.05 | 0.05 | 50 | 1009.8 |
| 20260505233807 | 21 | 236 | 1.6 | 6.4 | 0.00 | 0.05 | 0.05 | 50 | 1009.6 |
| 20260505233305 | 22 | 268 | 1.6 | 3.2 | 0.00 | 0.05 | 0.05 | 50 | 1009.7 |
| 20260505232801 | 21 | 127 | 3.2 | 6.4 | 0.00 | 0.05 | 0.05 | 50 | 1009.6 |
| 20260505232259 | 22 | 177 | 3.2 | 4.8 | 0.00 | 0.05 | 0.05 | 49 | 1009.8 |
| 20260505231755 | 22 | 238 | 3.2 | 9.7 | 0.00 | 0.05 | 0.05 | 49 | 1009.7 |
| 20260505231254 | 22 | 201 | 4.8 | 11.3 | 0.00 | 0.05 | 0.05 | 48 | 1009.7 |
| 20260505230752 | 22 | 249 | 1.6 | 9.7 | 0.00 | 0.05 | 0.05 | 48 | 1009.8 |
| 20260505230248 | 22 | 173 | 8.0 | 27.4 | 0.00 | 0.05 | 0.05 | 47 | 1009.7 |
| 20260505225745 | 22 | 132 | 3.2 | 12.9 | 0.00 | 0.05 | 0.05 | 48 | 1009.6 |
| 20260505225242 | 22 | 91 | 4.8 | 6.4 | 0.00 | 0.05 | 0.05 | 47 | 1009.7 |
| 20260505224737 | 22 | 122 | 9.7 | 16.1 | 0.00 | 0.05 | 0.05 | 47 | 1009.8 |
| 20260505224235 | 22 | 209 | 4.8 | 22.5 | 0.00 | 0.05 | 0.05 | 46 | 1009.8 |
| 20260505223733 | 22 | 201 | 1.6 | 6.4 | 0.00 | 0.05 | 0.05 | 48 | 1009.8 |
| 20260505223229 | 22 | 114 | 6.4 | 16.1 | 0.00 | 0.05 | 0.05 | 48 | 1009.8 |
| 20260505222725 | 22 | 62 | 8.0 | 14.5 | 0.00 | 0.05 | 0.05 | 48 | 1009.9 |
| 20260505222221 | 22 | 11 | 0.0 | 6.4 | 0.00 | 0.05 | 0.05 | 49 | 1009.8 |
| 20260505221718 | 22 | 260 | 3.2 | 11.3 | 0.00 | 0.05 | 0.05 | 47 | 1009.8 |
| 20260505221215 | 22 | 233 | 3.2 | 6.4 | 0.00 | 0.05 | 0.05 | 48 | 1009.9 |
| 20260505220712 | 22 | 139 | 3.2 | 11.3 | 0.00 | 0.05 | 0.05 | 48 | 1010.0 |
| 20260505220210 | 22 | 233 | 6.4 | 11.3 | 0.00 | 0.05 | 0.05 | 48 | 1009.9 |
| 20260505215707 | 22 | 177 | 1.6 | 6.4 | 0.00 | 0.05 | 0.05 | 49 | 1009.8 |
| 20260505215205 | 22 | 101 | 4.8 | 6.4 | 0.00 | 0.05 | 0.05 | 48 | 1009.8 |
| 20260505214702 | 22 | 146 | 11.3 | 16.1 | 0.00 | 0.05 | 0.05 | 48 | 1010.1 |
| 20260505214200 | 22 | 169 | 9.7 | 16.1 | 0.00 | 0.05 | 0.05 | 49 | 1010.1 |
| 20260505213657 | 22 | 230 | 6.4 | 9.7 | 0.00 | 0.05 | 0.05 | 49 | 1009.9 |
| 20260505213154 | 22 | 229 | 6.4 | 11.3 | 0.00 | 0.05 | 0.05 | 50 | 1010.0 |
| 20260505212650 | 22 | 181 | 3.2 | 9.7 | 0.00 | 0.05 | 0.05 | 50 | 1010.1 |
| 20260505212147 | 22 | 286 | 1.6 | 16.1 | 0.00 | 0.05 | 0.05 | 52 | 1010.1 |
| 20260505211644 | 22 | 230 | 8.0 | 12.9 | 0.00 | 0.05 | 0.05 | 51 | 1010.0 |
| 20260505211142 | 22 | 107 | 6.4 | 9.7 | 0.00 | 0.05 | 0.05 | 52 | 1010.0 |
| 20260505210638 | 22 | 226 | 3.2 | 6.4 | 0.00 | 0.05 | 0.05 | 51 | 1010.2 |
| 20260505210135 | 23 | 101 | 3.2 | 12.9 | 0.00 | 0.05 | 0.05 | 51 | 1010.3 |
| 20260505205632 | 23 | 146 | 8.0 | 12.9 | 0.00 | 0.05 | 0.05 | 50 | 1010.2 |
| 20260505205131 | 23 | 243 | 3.2 | 11.3 | 0.00 | 0.05 | 0.05 | 50 | 1010.3 |
| 20260505204627 | 23 | 192 | 6.4 | 20.9 | 0.00 | 0.05 | 0.05 | 50 | 1010.3 |
| 20260505204125 | 23 | 140 | 1.6 | 16.1 | 0.00 | 0.05 | 0.05 | 51 | 1010.3 |
| 20260505203621 | 23 | 125 | 4.8 | 12.9 | 0.00 | 0.05 | 0.05 | 51 | 1010.3 |
| 20260505203119 | 23 | 296 | 4.8 | 11.3 | 0.00 | 0.05 | 0.05 | 50 | 1010.2 |
| 20260505202614 | 23 | 259 | 6.4 | 9.7 | 0.00 | 0.05 | 0.05 | 50 | 1010.3 |
| 20260505202110 | 23 | 82 | 11.3 | 14.5 | 0.00 | 0.05 | 0.05 | 49 | 1010.4 |
| 20260505201607 | 23 | 109 | 8.0 | 14.5 | 0.00 | 0.05 | 0.05 | 49 | 1010.4 |
| 20260505201105 | 23 | 148 | 6.4 | 17.7 | 0.00 | 0.05 | 0.05 | 50 | 1010.4 |
| 20260505200603 | 23 | 174 | 9.7 | 24.1 | 0.00 | 0.05 | 0.05 | 50 | 1010.4 |
| 20260505200059 | 23 | 142 | 11.3 | 16.1 | 0.00 | 0.05 | 0.05 | 50 | 1010.5 |
| 20260505195555 | 23 | 101 | 11.3 | 17.7 | 0.00 | 0.05 | 0.05 | 50 | 1010.6 |
| 20260505195053 | 23 | 217 | 8.0 | 17.7 | 0.00 | 0.05 | 0.05 | 50 | 1010.7 |
| 20260505194550 | 23 | 122 | 3.2 | 4.8 | 0.00 | 0.05 | 0.05 | 50 | 1010.5 |
| 20260505194045 | 23 | 223 | 6.4 | 11.3 | 0.00 | 0.05 | 0.05 | 50 | 1010.7 |
| 20260505193543 | 23 | 144 | 3.2 | 12.9 | 0.00 | 0.05 | 0.05 | 50 | 1010.5 |
| 20260505193040 | 23 | 78 | 4.8 | 17.7 | 0.00 | 0.05 | 0.05 | 49 | 1010.7 |
| 20260505192538 | 23 | 201 | 12.9 | 17.7 | 0.00 | 0.05 | 0.05 | 49 | 1010.8 |
| 20260505192036 | 23 | 217 | 9.7 | 17.7 | 0.00 | 0.05 | 0.05 | 50 | 1010.7 |
| 20260505191534 | 23 | 185 | 6.4 | 11.3 | 0.00 | 0.05 | 0.05 | 51 | 1010.5 |
| 20260505191031 | 23 | 185 | 8.0 | 17.7 | 0.00 | 0.05 | 0.05 | 50 | 1010.6 |
| 20260505190526 | 23 | 163 | 6.4 | 12.9 | 0.00 | 0.05 | 0.05 | 50 | 1010.7 |
| 20260505190022 | 23 | 238 | 9.7 | 16.1 | 0.00 | 0.05 | 0.05 | 49 | 1010.6 |
| 20260505185519 | 23 | 177 | 6.4 | 12.9 | 0.00 | 0.05 | 0.05 | 50 | 1010.5 |
| 20260505185016 | 23 | 192 | 8.0 | 14.5 | 0.00 | 0.05 | 0.05 | 49 | 1010.3 |
| 20260505184513 | 24 | 116 | 6.4 | 11.3 | 0.00 | 0.05 | 0.05 | 49 | 1010.5 |
| 20260505184009 | 23 | 245 | 6.4 | 14.5 | 0.00 | 0.05 | 0.05 | 49 | 1010.4 |
| 20260505183506 | 23 | 71 | 4.8 | 12.9 | 0.00 | 0.05 | 0.05 | 49 | 1010.4 |
| 20260505183003 | 23 | 127 | 9.7 | 12.9 | 0.00 | 0.05 | 0.05 | 48 | 1010.5 |
| 20260505182500 | 24 | 183 | 11.3 | 20.9 | 0.00 | 0.05 | 0.05 | 47 | 1010.4 |
| 20260505181956 | 25 | 194 | 6.4 | 14.5 | 0.00 | 0.05 | 0.05 | 47 | 1010.4 |
| 20260505181453 | 24 | 251 | 4.8 | 17.7 | 0.00 | 0.05 | 0.05 | 47 | 1010.3 |
| 20260505180950 | 25 | 123 | 6.4 | 16.1 | 0.00 | 0.05 | 0.05 | 47 | 1010.4 |
| 20260505180446 | 25 | 215 | 6.4 | 14.5 | 0.00 | 0.05 | 0.05 | 46 | 1010.5 |
| 20260505175943 | 25 | 41 | 9.7 | 12.9 | 0.00 | 0.05 | 0.05 | 47 | 1010.3 |
| 20260505175439 | 25 | 121 | 8.0 | 17.7 | 0.00 | 0.05 | 0.05 | 46 | 1010.5 |
| 20260505174936 | 25 | 21 | 1.6 | 6.4 | 0.00 | 0.05 | 0.05 | 48 | 1010.5 |
| 20260505174433 | 24 | 112 | 1.6 | 6.4 | 0.00 | 0.05 | 0.05 | 47 | 1010.5 |
| 20260505173929 | 23 | 308 | 3.2 | 20.9 | 0.00 | 0.05 | 0.05 | 47 | 1010.6 |
| 20260505173426 | 23 | 116 | 8.0 | 17.7 | 0.00 | 0.05 | 0.05 | 47 | 1010.5 |
| 20260505172923 | 23 | 184 | 14.5 | 20.9 | 0.00 | 0.05 | 0.05 | 47 | 1010.7 |
| 20260505172421 | 24 | 199 | 8.0 | 16.1 | 0.00 | 0.05 | 0.05 | 47 | 1010.6 |
| 20260505171920 | 23 | 179 | 8.0 | 12.9 | 0.00 | 0.05 | 0.05 | 48 | 1010.5 |
| 20260505171418 | 23 | 326 | 6.4 | 12.9 | 0.00 | 0.05 | 0.05 | 48 | 1010.8 |
| 20260505170914 | 23 | 178 | 6.4 | 17.7 | 0.00 | 0.05 | 0.05 | 49 | 1010.5 |
| 20260505170411 | 23 | 163 | 8.0 | 25.7 | 0.00 | 0.05 | 0.05 | 48 | 1010.7 |
| 20260505165906 | 23 | 331 | 3.2 | 20.9 | 0.00 | 0.05 | 0.05 | 48 | 1010.8 |